Regional Weather Roundup
Issued by NWS

Home | Current Version | Previous Version | Graphics & Text | Print | Product List | Glossary Off
Versions: 1 2 3 4 5 6 7 8 9 10 11 12 13 14 15 16 17 18 19 20 21 22 23 24 25 26 27 28 29 30 31 32 33 34 35 36 37 38 39 40 41 42 43 44 45 46 47 48 49 50

000
ASUS43 KDTX 291601
RWRMI
MICHIGAN HOURLY REGIONAL WEATHER ROUNDUP
NATIONAL WEATHER SERVICE DETROIT/PONTIAC MI
1200 PM EDT TUE JUL 29 2014

NOTE: "FAIR" INDICATES FEW OR NO CLOUDS BELOW 12,000 FEET WITH NO
SIGNIFICANT WEATHER AND/OR OBSTRUCTION TO VISIBILITY.

MIZ047>049-052>055-059>063-066>070-074>076-081>083-291700-
SOUTHEAST LOWER MICHIGAN

CITY           SKY/WX    TMP DP  RH WIND       PRES   REMARKS
ADRIAN         CLOUDY    66  49  54 W8        30.04S
ALMA           MOSUNNY   68  57  67 W10       29.98S
ANN ARBOR      CLOUDY    68  49  50 W10       30.02R
BAD AXE          N/A    N/A N/A N/A MISG        N/A
CARO           LGT RAIN  63  59  87 SW6       29.97S
DETROIT CITY   PTSUNNY   70  48  45 W9        30.00S
DETROIT        PTSUNNY   70  51  51 W10       30.02R
FLINT          CLOUDY    65  53  65 W8        29.99F
GROSSE ILE     PTSUNNY   68  50  52 W7        30.01R
HILLSDALE      PTSUNNY   66  53  63 W7        30.03F
HOWELL         CLOUDY    63  51  65 SW6       30.00F

CITY           SKY/WX    TMP DP  RH WIND       PRES   REMARKS
JACKSON        CLOUDY    65  53  65 SW8       30.02F
LAMBERTVILLE   SUNNY     68  48  49 W9        30.03S
LANSING        PTSUNNY   65  54  67 W13G20    30.01S
LAPEER         CLOUDY    65  51  60 W10G16    29.98F
MASON          PTSUNNY   65  53  65 SW6       30.00F
MONROE         SUNNY     68  52  56 W6        30.01S
MT. CLEMENS    MOSUNNY   70  51  51 W7        29.98F
PONTIAC        CLOUDY    67  51  56 W14       29.99F
PORT HOPE        N/A     63  55  75 W9        29.93S
PORT HURON     CLOUDY    64  52  63 SW8       29.99S
TRI CITIES     MOSUNNY   68  57  68 W10       29.97S
TROY           CLOUDY    67  50  54 W6        30.01S
SAGINAW HB     MOSUNNY   66  52  59 SW12G17   29.96F
$$
MIZ043>046-050>051-056>058-064>065-071>073-077>080-291700-
SOUTHWEST LOWER MICHIGAN

CITY           SKY/WX    TMP DP  RH WIND       PRES   REMARKS
BATTLE CREEK   CLOUDY    66  56  70 W9        30.03S
BENTON HARBOR  MOSUNNY   66  57  72 NW8       30.04R
BIG RAPIDS     MOSUNNY   68  56  63 NW9G20    29.98S
COLDWATER      PTSUNNY   67  54  63 SW7       30.03F
FREMONT        FAIR      70  57  62 NW7       29.99F
HOLLAND        SUNNY     68  58  70 VRB7      30.02S
GRAND RAPIDS   PTSUNNY   70  58  65 W8        30.00S
IONIA          FAIR      69  57  65 W7        29.99F
KALAMAZOO      CLOUDY    65  56  72 SW6       30.03S
LUDINGTON      SUNNY     68  60  76 N8        30.00S
MARSHALL       PTSUNNY   66  53  64 W9        30.02S
MOUNT PLEASANT SUNNY     68  58  68 W8        29.96F
MUSKEGON       PTSUNNY   69  57  65 W9        30.01R
SOUTH HAVEN    MOSUNNY   67  60  78 W10       30.03R
$$
MIZ016>042-291700-
NORTHERN LOWER MICHIGAN

CITY           SKY/WX    TMP DP  RH WIND       PRES   REMARKS
ALPENA         CLOUDY    65  55  70 VRB7      29.92S
BEAVER ISLAND  PTSUNNY   63  58  84 NW9       29.96S
BELLAIRE       CLOUDY    64  56  77 W7        29.96S
CADILLAC       MOSUNNY   66  57  71 NW13G18   29.97S
CHARLEVOIX     CLOUDY    60  58  92 NW8       29.99S
FRANKFORT      SUNNY     67  55  65 N5        29.99S
GAYLORD        CLOUDY    62  53  72 W9        29.96S
GRAYLING       PTSUNNY   67  57  69 W8        29.96S
HARBOR SPRINGS MOSUNNY   65  56  74 SW8       29.95R
HOUGHTON LAKE  PTSUNNY   65  54  67 NW10      29.96F
MANISTEE       MOSUNNY   63  55  77 NW10      30.00S
OSCODA         CLOUDY    65  56  74 NW7       29.92S
PELLSTON       MOSUNNY   65  56  72 W12       29.94S
ROGERS CITY    MOSUNNY   64  60  86 N8        29.93S
TRAVERSE CITY  CLOUDY    67  55  65 NW6       29.96S
$$
MIZ007>008-015-291700-
EASTERN UPPER MICHIGAN

CITY           SKY/WX    TMP DP  RH WIND       PRES   REMARKS
KINROSS        CLOUDY    63  55  77 N10       29.92S
MACKINAC ISLAN CLOUDY    62  56  83 SW12      29.92S
NEWBERRY       CLOUDY    62  55  80 W7        29.94S
S. S. MARIE    CLOUDY    62  53  72 NW8       29.92S
MUNISING         N/A     58  53  84 NW12      29.98R
$$
MIZ004>006-011>014-085-291700-
CENTRAL UPPER MICHIGAN

CITY           SKY/WX    TMP DP  RH WIND       PRES   REMARKS
MANISTIQUE     CLOUDY    66  57  71 NW8       29.95S
ESCANABA       PTSUNNY   66  54  63 NW8       29.98R
MENOMINEE      MOSUNNY   66  55  68 N7        29.99R
$$
MIZ001>003-009>011-084-291700-
WESTERN UPPER MICHIGAN

CITY           SKY/WX    TMP DP  RH WIND       PRES   REMARKS
IRON MOUNTAIN  MOSUNNY   67  54  63 NW9       29.99F
COPPER HARBOR    N/A     61  55  81 N14       29.98S
$$

ABBREVIATIONS USED IN REMARKS
   TC - TEMPERATURE IN CELSIUS
  WCI - WIND CHILL INDEX
   HX - HEAT INDEX
  VSB - VISIBILITY



USA.gov is the U.S. government's official web portal to all federal, state and local government web resources and services.